User: anonymous   Login
Location: Theydon Bois
(51.6750°N, 0.1050°E)
Time: 04:33:48
(UTC+00:00)
Language:

Cosmos 1420 Rocket - Orbit

View from above orbital plane
View from above orbital plane
View from above satellite
View from above satellite

Ground track
Ground track

The orbit data is extracted from the following two-line orbital elements,

1 13649U 82109B   17347.52281376 -.00000000 +00000-0 +87817-5 0  9996
2 13649 074.0013 041.5864 0017975 160.1957 303.7570 14.37089753837107
Epoch (UTC): 13 December 2017 12:32:51
Eccentricity: 0.0017975
inclination: 74.0013°
perigee height: 755 km
apogee height: 781 km
right ascension of ascending node: 41.5864°
argument of perigee: 160.1957°
revolutions per day: 14.37089753
mean anomaly at epoch: 303.7570°
orbit number at epoch: 83710

The dashed part of the orbit path shows where the satellite is in the earth's shadow,  

DLR